Regional Weather Roundup
Issued by NWS Kansas City/Pleasant Hill, MO

Home | Current Version | Previous Version | Text Only | Print | Product List | Glossary On
Versions: 1 2 3 4 5 6 7 8 9 10 11 12 13 14 15 16 17 18 19 20 21 22 23 24 25 26 27 28 29 30 31 32 33 34 35 36 37 38 39 40 41 42 43 44 45 46 47 48 49 50
000
ASUS43 KEAX 162311
RWREAX

WEATHER ROUNDUP FOR EASTERN KANSAS AND NORTHWEST MISSOURI
NATIONAL WEATHER SERVICE KANSAS CITY/PLEASANT HILL MO
600 PM CDT TUE SEP 16 2014

KSZ040-057-103>105-MOZ028-029-037-043-170000-
...KANSAS CITY METROPOLITAN AREA...

CITY           SKY/WX    TMP DP  RH WIND       PRES   REMARKS
K.C. INTL      SUNNY     69  52  54 E5        30.06F
K.C. DOWNTOWN  SUNNY     73  53  49 VRB3      30.05F
LEES SUMMIT    SUNNY     70  52  52 S3        30.07F
OLATHE - IXD   SUNNY     71  53  52 S6        30.06F
OLATHE - OJC   SUNNY     69  53  56 SE7       30.05F
LAWRENCE       SUNNY     72  53  51 SE9       30.04F

$$

MOZ001>008-011>017-020>025-030>033-038>040-044>046-053-054-170000-
...NORTHERN AND CENTRAL MISSOURI...

CITY           SKY/WX    TMP DP  RH WIND       PRES   REMARKS
ST. JOSEPH     SUNNY     69  53  56 SE9       30.05F
MOSBY          CLEAR     70  52  52 CALM      30.06F
WARRENSBURG    SUNNY     70  54  56 SE3       30.06F
WHITEMAN AFB   SUNNY     70  55  58 VRB2      30.07F
CLINTON        SUNNY     72  55  56 CALM      30.08S
SEDALIA        SUNNY     70  53  54 SE6       30.08F
WARSAW         NOT AVBL
MARSHALL       SUNNY     72  54  53 SE5       30.08S
CHILLICOTHE      N/A     68  50  52 CALM      30.09F
MOBERLY        SUNNY     68  50  52 E5        30.09F
KIRKSVILLE     SUNNY     66  49  54 SE5       30.09F

$$

MOZ041-047>049-056>058-063>065-088>090-097-170000-
...EASTERN AND SOUTHERN MISSOURI...

CITY           SKY/WX    TMP DP  RH WIND       PRES   REMARKS
ST. LOUIS INTL MOSUNNY   66  53  63 NE6       30.11F
SPIRIT OF STL  MOSUNNY   67  51  56 CALM      30.10F
COLUMBIA       SUNNY     70  55  59 E3        30.09F
JEFFERSON CITY SUNNY     70  53  54 S5        30.07F
MEXICO         SUNNY     70  57  64 SE3       30.09F
HANNIBAL       SUNNY     68  46  45 CALM      30.10S
ROLLA          HAZE      66  53  63 CALM      30.08F VSB 1/2
OSAGE BEACH    PTSUNNY   70  55  60 S5        30.08F
SPRINGFIELD    PTSUNNY   73  61  65 E6        30.07F
BRANSON        CLOUDY    68  63  83 SE6       30.10F
NEVADA         SUNNY     70  59  68 CALM      30.07F
JOPLIN         MOSUNNY   74  64  71 VRB3      30.06F
WEST PLAINS    CLOUDY    67  58  72 SE5       30.11F

$$

IAZ060-094-KSZ022-034>040-054-083-096-NEZ052-066-093-170000-
...KANSAS...SOUTHEAST NEBRASKA AND IOWA...

CITY           SKY/WX    TMP DP  RH WIND       PRES   REMARKS
TOPEKA         SUNNY     73  54  51 SE6       30.04F
MANHATTAN      SUNNY     76  51  41 SE7       30.01F
EMPORIA        SUNNY     75  58  55 SE7       30.03F
CHANUTE        SUNNY     76  62  62 SE6       30.04F
WICHITA        SUNNY     80  62  54 SE14      30.01F
OMAHA          MOSUNNY   68  48  48 SE10      30.04F
LINCOLN        CLOUDY    70  49  47 SE10      30.02F
FALLS CITY     SUNNY     71  50  47 SE8       30.03F
LAMONI         SUNNY     65  49  56 SE6       30.08F
DES MOINES     SUNNY     67  47  48 S6        30.07F

$$




USA.gov is the U.S. government's official web portal to all federal, state and local government web resources and services.